Погода в Среднем Бугалыше

Россия / Свердловская область     56°17′36″N   58°00′16″E
темп.,
°C
ветер,
м/с
пор.,
м/с
влажн.,
%
обл.,
%
осадки,
мм/ч
давл.,
гПа
погр.,
м
11 апреля, вс
вс1123:00+2ююв12100100 0.0 103250
02:00+2ю12100100 0.0 103149
05:00+1ююв24100100 0.0 103294
08:00+2ююз13100100 0.0 103279
11:00+7ю389579 0.0 1032230
14:00+11ююз4976100 0.0 1031436
17:00+11юз4874100 0.0 1031207
20:00+8ююз228279 0.0 103211
12 апреля, пн
пн1223:00+7юз2287100 0.1 103311
02:00+7юз1190100 0.0 103410
05:00+6юз1195100 0.6 103510
08:00+5ссз2399100 1.4 103671
11:00+5с2299100 3.9 103856
14:00+5ссв2396100 1.4 103885
17:00+6в1186100 1.9 103810
20:00+6всв2280100 0.0 103814
13 апреля, вт
вт1323:00+5в2284100 0.0 103815
02:00+5в2285100 0.0 103817
05:00+5в1192100 0.0 103710
08:00+6юв1195100 0.0 103712
11:00+11ю33795 0.0 1036339
14:00+16ююз345838 0.0 10341075
17:00+16зюз4454100 0.0 10331165
20:00+13зюз227393 0.0 103318
14 апреля, ср
ср1423:00+10зюз22775 0.0 103212
02:00+8юз22745 0.0 103210
05:00+6юз227126 0.0 103210
08:00+7юз23677 0.0 103175
11:00+12юз464613 0.0 1029542
14:00+15зюз453630 0.0 10281064
17:00+15зюз563733 0.0 10261116
20:00+12зюз225519 0.0 102523
15 апреля, чт
чт1523:00+9зюз226251 0.0 102414
02:00+7зюз226831 0.0 102310
05:00+6юз22726 0.0 102310
08:00+7юз22697 0.0 102239
11:00+13юз34495 0.0 1020484
14:00+16зюз45370 0.0 10181190
17:00+16зюз45341 0.0 10161278
20:00+12юз335111 0.0 101525